"Platform","White Shoal Light Station"
"NDBC ID","WSLM4"
"Latitude (deg)",45.84222
"Longitude (deg)",-85.13528
"Water Depth (m)",8
"Sensor Device","System Power Controller board voltage input"
"Sensor Type","Solar panel voltage"
"Sensor Units","voltage"
"Measurement","A sample"
"Time means","Time at sample (UTC time zone)"

"Note:","This data was collected for research purposes."
"Note:","Minimal quality checking has been performed so data may contain known or unknown errors."
"Note:","Data provided by NOAA. Please credit NOAA."
"Note:","For more info see www.glerl.noaa.gov/res/recon"

"Time (UTC)","Solar Panel"
"YYYY/MM/DD HH:MM","volts"
2022/01/01 00:03, 0.54
2022/01/01 00:33, 0.54
2022/01/01 01:03, 0.54
2022/01/01 01:33, 0.54
2022/01/01 02:03, 0.54
2022/01/01 02:33, 0.54
2022/01/01 03:03, 0.54
2022/01/01 03:33, 0.54
2022/01/01 04:03, 0.54
2022/01/01 04:33, 0.54
2022/01/01 05:03, 0.54
2022/01/01 05:33, 0.54
2022/01/01 06:03, 0.54
2022/01/01 06:33, 0.54
2022/01/01 07:03, 0.54
2022/01/01 07:33, 0.54
2022/01/01 08:03, 0.54
2022/01/01 08:33, 0.54
2022/01/01 09:03, 0.54
2022/01/01 09:33, 0.54
2022/01/01 10:03, 0.54
2022/01/01 10:33, 0.54
2022/01/01 11:03, 0.54
2022/01/01 11:33, 0.54
2022/01/01 12:03, 0.54
2022/01/01 12:33, 0.54
2022/01/01 13:03, 5.18
2022/01/01 13:33, 15.74
2022/01/01 14:03, 14.45
2022/01/01 14:33, 16.00
2022/01/01 15:03, 14.11
2022/01/01 15:33, 15.62
2022/01/01 16:03, 16.59
2022/01/01 16:33, 16.50
2022/01/01 17:03, 16.64
2022/01/01 17:33, 16.86
2022/01/01 18:03, 17.06
2022/01/01 18:33, 16.90
2022/01/01 19:03, 16.98
2022/01/01 19:33, 17.43
2022/01/01 20:03, 16.27
2022/01/01 20:33, 17.00
2022/01/01 21:03, 16.20
2022/01/01 21:33, 15.24
2022/01/01 22:03, 15.63
2022/01/01 22:33, 4.31
2022/01/01 23:03, 0.54
2022/01/01 23:33, 0.54
2022/01/02 00:03, 0.54
2022/01/02 00:33, 0.54
2022/01/02 01:03, 0.54
2022/01/02 01:33, 0.54
2022/01/02 02:03, 0.54
2022/01/02 02:33, 0.54
2022/01/02 03:03, 0.54
2022/01/02 03:33, 0.54
2022/01/02 04:03, 0.54
2022/01/02 04:33, 0.54
2022/01/02 05:03, 0.54
2022/01/02 05:33, 0.54
2022/01/02 06:03, 0.54
2022/01/02 06:33, 0.54
2022/01/02 07:03, 0.54
2022/01/02 07:33, 0.54
2022/01/02 08:03, 0.54
2022/01/02 08:33, 0.54
2022/01/02 09:03, 0.54
2022/01/02 09:33, 0.54
2022/01/02 10:03, 0.54
2022/01/02 10:33, 0.54
2022/01/02 11:03, 0.54
2022/01/02 11:33, 0.54
2022/01/02 12:03, 0.54
2022/01/02 12:33, 0.54
2022/01/02 13:03, 9.05
2022/01/02 13:33, 15.46
2022/01/02 14:03, 15.29
2022/01/02 14:33, 15.63
2022/01/02 15:03, 16.96
2022/01/02 15:33, 16.73
2022/01/02 16:03, 16.74
2022/01/02 16:33, 17.16
2022/01/02 17:03, 17.14
2022/01/02 17:33, 17.09
2022/01/02 18:03, 19.82
2022/01/02 18:33, 16.63
2022/01/02 19:03, 16.19
2022/01/02 19:33, 16.27
2022/01/02 20:03, 16.08
2022/01/02 20:33, 15.28
2022/01/02 21:03, 14.13
2022/01/02 21:33, 16.70
2022/01/02 22:03, 14.09
2022/01/02 22:33, 4.31
2022/01/02 23:03, 0.54
2022/01/02 23:33, 0.54
2022/01/03 00:03, 0.54
2022/01/03 00:33, 0.54
2022/01/03 01:03, 0.54
2022/01/03 01:33, 0.54
2022/01/03 02:03, 0.54
2022/01/03 02:33, 0.54
2022/01/03 03:03, 0.54
2022/01/03 03:33, 0.54
2022/01/03 04:03, 0.54
2022/01/03 04:33, 0.54
2022/01/03 05:03, 0.54
2022/01/03 05:33, 0.54
2022/01/03 06:03, 0.54
2022/01/03 06:33, 0.54
2022/01/03 07:03, 0.54
2022/01/03 07:33, 0.54
2022/01/03 08:03, 0.54
2022/01/03 08:33, 0.54
2022/01/03 09:03, 0.54
2022/01/03 09:33, 0.54
2022/01/03 10:03, 0.54
2022/01/03 10:33, 0.54
2022/01/03 11:03, 0.54
2022/01/03 11:33, 0.54
2022/01/03 12:03, 0.54
2022/01/03 12:33, 0.54
2022/01/03 13:03, 9.63
2022/01/03 13:33, 16.81
2022/01/03 14:03, 15.63
2022/01/03 14:33, 16.48
2022/01/03 15:03, 16.84
2022/01/03 15:33, 16.90
2022/01/03 16:03, 19.99
2022/01/03 16:33, 20.18
2022/01/03 17:03, 16.75
2022/01/03 17:33, 19.80
2022/01/03 18:03, 19.80
2022/01/03 18:33, 19.12
2022/01/03 19:03, 20.42
2022/01/03 19:33, 20.28
2022/01/03 20:03, 19.95
2022/01/03 20:33, 19.91
2022/01/03 21:03, 19.10
2022/01/03 21:33, 15.68
2022/01/03 22:03, 14.15
2022/01/03 22:33, 7.59
2022/01/03 23:03, 0.54
2022/01/03 23:33, 0.54
2022/01/04 00:03, 0.54
2022/01/04 00:33, 0.54
2022/01/04 01:03, 0.54
2022/01/04 01:33, 0.54
2022/01/04 02:03, 0.54
2022/01/04 02:33, 0.54
2022/01/04 03:03, 0.54
2022/01/04 03:33, 0.54
2022/01/04 04:03, 0.54
2022/01/04 04:33, 0.54
2022/01/04 05:03, 0.54
2022/01/04 05:33, 0.54
2022/01/04 06:03, 0.54
2022/01/04 06:33, 0.54
2022/01/04 07:03, 0.54
2022/01/04 07:33, 0.54
2022/01/04 08:03, 0.54
2022/01/04 08:33, 0.54
2022/01/04 09:03, 0.54
2022/01/04 09:33, 0.54
2022/01/04 10:03, 0.54
2022/01/04 10:33, 0.54
2022/01/04 11:03, 0.54
2022/01/04 11:33, 0.54
2022/01/04 12:03, 0.54
2022/01/04 12:33, 0.54
2022/01/04 13:03, 4.21
2022/01/04 13:33, 13.11
2022/01/04 14:03, 15.92
2022/01/04 14:33, 14.07
2022/01/04 15:03, 13.60
2022/01/04 15:33, 14.09
2022/01/04 16:03, 14.89
2022/01/04 16:33, 15.25
2022/01/04 17:03, 15.77
2022/01/04 17:33, 15.25
2022/01/04 18:03, 15.33
2022/01/04 18:33, 15.24
2022/01/04 19:03, 15.13
2022/01/04 19:33, 14.74
2022/01/04 20:03, 14.63
2022/01/04 20:33, 14.08
2022/01/04 21:03, 13.75
2022/01/04 21:33, 16.31
2022/01/04 22:03, 13.80
2022/01/04 22:33, 3.73
2022/01/04 23:03, 0.54
2022/01/04 23:33, 0.54
2022/01/05 00:03, 0.54
2022/01/05 00:33, 0.54
2022/01/05 01:03, 0.54
2022/01/05 01:33, 0.54
2022/01/05 02:03, 0.54
2022/01/05 02:33, 0.54
2022/01/05 03:03, 0.54
2022/01/05 03:33, 0.54
2022/01/05 04:03, 0.54
2022/01/05 04:33, 0.54
2022/01/05 05:03, 0.54
2022/01/05 05:33, 0.54
2022/01/05 06:03, 0.54
2022/01/05 06:33, 0.54
2022/01/05 07:03, 0.54
2022/01/05 07:33, 0.54
2022/01/05 08:03, 0.54
2022/01/05 08:33, 0.54
2022/01/05 09:03, 0.54
2022/01/05 09:33, 0.54
2022/01/05 10:03, 0.54
2022/01/05 10:33, 0.54
2022/01/05 11:03, 0.54
2022/01/05 11:33, 0.54
2022/01/05 12:03, 0.54
2022/01/05 12:33, 0.54
2022/01/05 13:03, 7.02
2022/01/05 13:33, 15.24
2022/01/05 14:03, 13.38
2022/01/05 14:33, 15.39
2022/01/05 15:03, 15.63
2022/01/05 15:33, 16.32
2022/01/05 16:03, 16.59
2022/01/05 16:33, 16.64
2022/01/05 17:03, 16.71
2022/01/05 17:33, 16.69
2022/01/05 18:03, 16.41
2022/01/05 18:33, 16.28
2022/01/05 19:03, 16.08
2022/01/05 19:33, 15.99
2022/01/05 20:03, 16.02
2022/01/05 20:33, 15.93
2022/01/05 21:03, 15.63
2022/01/05 21:33, 13.97
2022/01/05 22:03, 15.63
2022/01/05 22:33, 4.02
2022/01/05 23:03, 0.54
2022/01/05 23:33, 0.54
2022/01/06 00:03, 0.54
2022/01/06 00:33, 0.54
2022/01/06 01:03, 0.54
2022/01/06 01:33, 0.54
2022/01/06 02:03, 0.54
2022/01/06 02:33, 0.54
2022/01/06 03:03, 0.54
2022/01/06 03:33, 0.54
2022/01/06 04:03, 0.54
2022/01/06 04:33, 0.54
2022/01/06 05:03, 0.54
2022/01/06 05:33, 0.54
2022/01/06 06:03, 0.54
2022/01/06 06:33, 0.54
2022/01/06 07:03, 0.54
2022/01/06 07:33, 0.54
2022/01/06 08:03, 0.54
2022/01/06 08:33, 0.54
2022/01/06 09:03, 0.54
2022/01/06 09:33, 0.54
2022/01/06 10:03, 0.54
2022/01/06 10:33, 0.54
2022/01/06 11:03, 0.54
2022/01/06 11:33, 0.54
2022/01/06 12:03, 0.54
2022/01/06 12:33, 0.54
2022/01/06 13:03, 8.57
2022/01/06 13:33, 16.61
2022/01/06 14:03, 15.24
2022/01/06 14:33, 15.63
2022/01/06 15:03, 16.60
2022/01/06 15:33, 16.79
2022/01/06 16:03, 17.19
2022/01/06 16:33, 17.17
2022/01/06 17:03, 17.28
2022/01/06 17:33, 17.33
2022/01/06 18:03, 17.19
2022/01/06 18:33, 16.58
2022/01/06 19:03, 17.57
2022/01/06 19:33, 17.44
2022/01/06 20:03, 17.18
2022/01/06 20:33, 16.89
2022/01/06 21:03, 16.29
2022/01/06 21:33, 14.79
2022/01/06 22:03, 16.12
2022/01/06 22:33, 6.35
2022/01/06 23:03, 0.54
2022/01/06 23:33, 0.54
2022/01/07 00:03, 0.54
2022/01/07 00:33, 0.54
2022/01/07 01:03, 0.54
2022/01/07 01:33, 0.54
2022/01/07 02:03, 0.54
2022/01/07 02:33, 0.54
2022/01/07 03:03, 0.54
2022/01/07 03:33, 0.54
2022/01/07 04:03, 0.54
2022/01/07 04:33, 0.54
2022/01/07 05:03, 0.54
2022/01/07 05:33, 0.54
2022/01/07 06:03, 0.54
2022/01/07 06:33, 0.54
2022/01/07 07:03, 0.54
2022/01/07 07:33, 0.54
2022/01/07 08:03, 0.54
2022/01/07 08:33, 0.54
2022/01/07 09:03, 0.54
2022/01/07 09:33, 0.54
2022/01/07 10:03, 0.54
2022/01/07 10:33, 0.54
2022/01/07 11:03, 0.54
2022/01/07 11:33, 0.54
2022/01/07 12:03, 0.54
2022/01/07 12:33, 0.58
2022/01/07 13:03, 13.24
2022/01/07 13:33, 16.35
2022/01/07 14:03, 17.65
2022/01/07 14:33, 16.78
2022/01/07 15:03, 19.39
2022/01/07 15:33, 20.06
2022/01/07 16:03, 20.28
2022/01/07 16:33, 20.76
2022/01/07 17:03, 20.57
2022/01/07 17:33, 20.28
2022/01/07 18:03, 20.48
2022/01/07 18:33, 19.88
2022/01/07 19:03, 20.11
2022/01/07 19:33, 20.31
2022/01/07 20:03, 20.27
2022/01/07 20:33, 19.53
2022/01/07 21:03, 16.71
2022/01/07 21:33, 16.56
2022/01/07 22:03, 16.63
2022/01/07 22:33, 10.05
2022/01/07 23:03, 0.54
2022/01/07 23:33, 0.54
2022/01/08 00:03, 0.54
2022/01/08 00:33, 0.54
2022/01/08 01:03, 0.54
2022/01/08 01:33, 0.54
2022/01/08 02:03, 0.54
2022/01/08 02:33, 0.54
2022/01/08 03:03, 0.54
2022/01/08 03:33, 0.54
2022/01/08 04:03, 0.54
2022/01/08 04:33, 0.54
2022/01/08 05:03, 0.54
2022/01/08 05:33, 0.54
2022/01/08 06:03, 0.54
2022/01/08 06:33, 0.54
2022/01/08 07:03, 0.54
2022/01/08 07:33, 0.54
2022/01/08 08:03, 0.54
2022/01/08 08:33, 0.54
2022/01/08 09:03, 0.54
2022/01/08 09:33, 0.54
2022/01/08 10:03, 0.54
2022/01/08 10:33, 0.54
2022/01/08 11:03, 0.54
2022/01/08 11:33, 0.54
2022/01/08 12:03, 0.54
2022/01/08 12:33, 0.54
2022/01/08 13:03, 5.18
2022/01/08 13:33, 15.24
2022/01/08 14:03, 13.80
2022/01/08 14:33, 16.74
2022/01/08 15:03, 16.14
2022/01/08 15:33, 16.31
2022/01/08 16:03, 18.89
2022/01/08 16:33, 20.28
2022/01/08 17:03, 19.77
2022/01/08 17:33, 16.74
2022/01/08 18:03, 19.12
2022/01/08 18:33, 16.72
2022/01/08 19:03, 20.26
2022/01/08 19:33, 19.17
2022/01/08 20:03, 16.38
2022/01/08 20:33, 15.28
2022/01/08 21:03, 15.19
2022/01/08 21:33, 13.99
2022/01/08 22:03, 14.51
2022/01/08 22:33, 4.41
2022/01/08 23:03, 0.54
2022/01/08 23:33, 0.54
2022/01/09 00:03, 0.54
2022/01/09 00:33, 0.54
2022/01/09 01:03, 0.54
2022/01/09 01:33, 0.54
2022/01/09 02:03, 0.54
2022/01/09 02:33, 0.54
2022/01/09 03:03, 0.54
2022/01/09 03:33, 0.54
2022/01/09 04:03, 0.54
2022/01/09 04:33, 0.54
2022/01/09 05:03, 0.54
2022/01/09 05:33, 0.54
2022/01/09 06:03, 0.54
2022/01/09 06:33, 0.54
2022/01/09 07:03, 0.54
2022/01/09 07:33, 0.54
2022/01/09 08:03, 0.54
2022/01/09 08:33, 0.54
2022/01/09 09:03, 0.54
2022/01/09 09:33, 0.54
2022/01/09 10:03, 0.54
2022/01/09 10:33, 0.54
2022/01/09 11:03, 0.54
2022/01/09 11:33, 0.54
2022/01/09 12:03, 0.54
2022/01/09 12:33, 0.54
2022/01/09 13:03, 5.18
2022/01/09 13:33, 16.70
2022/01/09 14:03, 13.79
2022/01/09 14:33, 16.45
2022/01/09 15:03, 16.35
2022/01/09 15:33, 16.98
2022/01/09 16:03, 20.16
2022/01/09 16:33, 17.52
2022/01/09 17:03, 18.34
2022/01/09 17:33, 18.78
2022/01/09 18:03, 17.70
2022/01/09 18:33, 17.18
2022/01/09 19:03, 20.63
2022/01/09 19:33, 19.43
2022/01/09 20:03, 18.36
2022/01/09 20:33, 16.84
2022/01/09 21:03, 16.75
2022/01/09 21:33, 19.46
2022/01/09 22:03, 14.46
2022/01/09 22:33, 12.54
2022/01/09 23:03, 0.54
2022/01/09 23:33, 0.54
2022/01/10 00:03, 0.54
2022/01/10 00:33, 0.54
2022/01/10 01:03, 0.54
2022/01/10 01:33, 0.54
2022/01/10 02:03, 0.54
2022/01/10 02:33, 0.54
2022/01/10 03:03, 0.54
2022/01/10 03:33, 0.54
2022/01/10 04:03, 0.54
2022/01/10 04:33, 0.54
2022/01/10 05:03, 0.54
2022/01/10 05:33, 0.54
2022/01/10 06:03, 0.54
2022/01/10 06:33, 0.54
2022/01/10 07:03, 0.54
2022/01/10 07:33, 0.54
2022/01/10 08:03, 0.54
2022/01/10 08:33, 0.54
2022/01/10 09:03, 0.54
2022/01/10 09:33, 0.54
2022/01/10 10:03, 0.54
2022/01/10 10:33, 0.54
2022/01/10 11:03, 0.54
2022/01/10 11:33, 0.54
2022/01/10 12:03, 0.54
2022/01/10 12:33, 0.54
2022/01/10 13:03, 12.54
2022/01/10 13:33, 13.51
2022/01/10 14:03, 15.30
2022/01/10 14:33, 16.18
2022/01/10 15:03, 17.57
2022/01/10 15:33, 17.18
2022/01/10 16:03, 19.89
2022/01/10 16:33, 18.13
2022/01/10 17:03, 20.16
2022/01/10 17:33, 20.87
2022/01/10 18:03, 21.94
2022/01/10 18:33, 21.80
2022/01/10 19:03, 19.25
2022/01/10 19:33, 20.74
2022/01/10 20:03, 19.77
2022/01/10 20:33, 16.30
2022/01/10 21:03, 15.46
2022/01/10 21:33, 14.76
2022/01/10 22:03, 16.85
2022/01/10 22:33, 10.70
2022/01/10 23:03, 0.54
2022/01/10 23:33, 0.54
2022/01/11 00:03, 0.54
2022/01/11 00:33, 0.54
2022/01/11 01:03, 0.54
2022/01/11 01:33, 0.54
2022/01/11 02:03, 0.54
2022/01/11 02:33, 0.54
2022/01/11 03:03, 0.54
2022/01/11 03:33, 0.54
2022/01/11 04:03, 0.54
2022/01/11 04:33, 0.54
2022/01/11 05:03, 0.54
2022/01/11 05:33, 0.54
2022/01/11 06:03, 0.54
2022/01/11 06:33, 0.54
2022/01/11 07:03, 0.54
2022/01/11 07:33, 0.54
2022/01/11 08:03, 0.54
2022/01/11 08:33, 0.54
2022/01/11 09:03, 0.54
2022/01/11 09:33, 0.54
2022/01/11 10:03, 0.54
2022/01/11 10:33, 0.54
2022/01/11 11:03, 0.54
2022/01/11 11:33, 0.54
2022/01/11 12:03, 0.54
2022/01/11 12:33, 0.54
2022/01/11 13:03, 8.38
2022/01/11 13:33, 15.35
2022/01/11 14:03, 13.64
2022/01/11 14:33, 16.06
2022/01/11 15:03, 15.62
2022/01/11 15:33, 15.98
2022/01/11 16:03, 15.38
2022/01/11 16:33, 15.94
2022/01/11 17:03, 15.94
2022/01/11 17:33, 17.19
2022/01/11 18:03, 15.86
2022/01/11 18:33, 16.01
2022/01/11 19:03, 16.66
2022/01/11 19:33, 16.35
2022/01/11 20:03, 15.21
2022/01/11 20:33, 15.55
2022/01/11 21:03, 14.51
2022/01/11 21:33, 16.82
2022/01/11 22:03, 12.54
2022/01/11 22:33, 4.79
2022/01/11 23:03, 0.54
2022/01/11 23:33, 0.54
2022/01/12 00:03, 0.54
2022/01/12 00:33, 0.54
2022/01/12 01:03, 0.54
2022/01/12 01:33, 0.54
2022/01/12 02:03, 0.54
2022/01/12 02:33, 0.54
2022/01/12 03:03, 0.54
2022/01/12 03:33, 0.54
2022/01/12 04:03, 0.54
2022/01/12 04:33, 0.54
2022/01/12 05:03, 0.54
2022/01/12 05:33, 0.54
2022/01/12 06:03, 0.54
2022/01/12 06:33, 0.54
2022/01/12 07:03, 0.54
2022/01/12 07:33, 0.54
2022/01/12 08:03, 0.54
2022/01/12 08:33, 0.54
2022/01/12 09:03, 0.54
2022/01/12 09:33, 0.54
2022/01/12 10:03, 0.54
2022/01/12 10:33, 0.54
2022/01/12 11:03, 0.54
2022/01/12 11:33, 0.54
2022/01/12 12:03, 0.54
2022/01/12 12:33, 0.54
2022/01/12 13:03, 4.97
2022/01/12 13:33, 13.11
2022/01/12 14:03, 13.54
2022/01/12 14:33, 14.08
2022/01/12 15:03, 13.80
2022/01/12 15:33, 13.75
2022/01/12 16:03, 15.24
2022/01/12 16:33, 15.63
2022/01/12 17:03, 15.05
2022/01/12 17:33, 15.63
2022/01/12 18:03, 15.63
2022/01/12 18:33, 15.94
2022/01/12 19:03, 15.64
2022/01/12 19:33, 15.18
2022/01/12 20:03, 15.33
2022/01/12 20:33, 14.79
2022/01/12 21:03, 14.74
2022/01/12 21:33, 13.72
2022/01/12 22:03, 15.93
2022/01/12 22:33, 9.35
2022/01/12 23:03, 0.54
2022/01/12 23:33, 0.54
2022/01/13 00:03, 0.54
2022/01/13 00:33, 0.54
2022/01/13 01:03, 0.54
2022/01/13 01:33, 0.54
2022/01/13 02:03, 0.54
2022/01/13 02:33, 0.54
2022/01/13 03:03, 0.54
2022/01/13 03:33, 0.54
2022/01/13 04:03, 0.54
2022/01/13 04:33, 0.54
2022/01/13 05:03, 0.54
2022/01/13 05:33, 0.54
2022/01/13 06:03, 0.54
2022/01/13 06:33, 0.54
2022/01/13 07:03, 0.54
2022/01/13 07:33, 0.54
2022/01/13 08:03, 0.54
2022/01/13 08:33, 0.54
2022/01/13 09:03, 0.54
2022/01/13 09:33, 0.54
2022/01/13 10:03, 0.54
2022/01/13 10:33, 0.54
2022/01/13 11:03, 0.54
2022/01/13 11:33, 0.54
2022/01/13 12:03, 0.54
2022/01/13 12:33, 0.54
2022/01/13 13:03, 8.86
2022/01/13 13:33, 16.41
2022/01/13 14:03, 14.77
2022/01/13 14:33, 13.89
2022/01/13 15:03, 15.30
2022/01/13 15:33, 16.19
2022/01/13 16:03, 16.32
2022/01/13 16:33, 16.43
2022/01/13 17:03, 16.67
2022/01/13 17:33, 16.65
2022/01/13 18:03, 16.74
2022/01/13 18:33, 16.05
2022/01/13 19:03, 15.72
2022/01/13 19:33, 15.24
2022/01/13 20:03, 15.29
2022/01/13 20:33, 15.63
2022/01/13 21:03, 15.04
2022/01/13 21:33, 13.86
2022/01/13 22:03, 14.86
2022/01/13 22:33, 7.02
2022/01/13 23:03, 0.54
2022/01/13 23:33, 0.54
2022/01/14 00:03, 0.54
2022/01/14 00:33, 0.54
2022/01/14 01:03, 0.54
2022/01/14 01:33, 0.54
2022/01/14 02:03, 0.54
2022/01/14 02:33, 0.54
2022/01/14 03:03, 0.54
2022/01/14 03:33, 0.54
2022/01/14 04:03, 0.54
2022/01/14 04:33, 0.54
2022/01/14 05:03, 0.54
2022/01/14 05:33, 0.54
2022/01/14 06:03, 0.54
2022/01/14 06:33, 0.54
2022/01/14 07:03, 0.54
2022/01/14 07:33, 0.54
2022/01/14 08:03, 0.54
2022/01/14 08:33, 0.54
2022/01/14 09:03, 0.54
2022/01/14 09:33, 0.54
2022/01/14 10:03, 0.54
2022/01/14 10:33, 0.54
2022/01/14 11:03, 0.54
2022/01/14 11:33, 0.54
2022/01/14 12:03, 0.54
2022/01/14 12:33, 0.93
2022/01/14 13:03, 16.12
2022/01/14 13:33, 14.76
2022/01/14 14:03, 17.04
2022/01/14 14:33, 18.22
2022/01/14 15:03, 19.38
2022/01/14 15:33, 20.08
2022/01/14 16:03, 20.36
2022/01/14 16:33, 20.62
2022/01/14 17:03, 21.83
2022/01/14 17:33, 21.83
2022/01/14 18:03, 21.82
2022/01/14 18:33, 21.72
2022/01/14 19:03, 20.87
2022/01/14 19:33, 20.59
2022/01/14 20:03, 20.41
2022/01/14 20:33, 20.56
2022/01/14 21:03, 17.58
2022/01/14 21:33, 16.67
2022/01/14 22:03, 14.78
2022/01/14 22:33, 12.93
2022/01/14 23:03, 0.54
2022/01/14 23:33, 0.54
2022/01/15 00:03, 0.54
2022/01/15 00:33, 0.54
2022/01/15 01:03, 0.54
2022/01/15 01:33, 0.54
2022/01/15 02:03, 0.54
2022/01/15 02:33, 0.54
2022/01/15 03:03, 0.54
2022/01/15 03:33, 0.54
2022/01/15 04:03, 0.54
2022/01/15 04:33, 0.54
2022/01/15 05:03, 0.54
2022/01/15 05:33, 0.54
2022/01/15 06:03, 0.54
2022/01/15 06:33, 0.54
2022/01/15 07:03, 0.54
2022/01/15 07:33, 0.54
2022/01/15 08:03, 0.54
2022/01/15 08:33, 0.54
2022/01/15 09:03, 0.54
2022/01/15 09:33, 0.54
2022/01/15 10:03, 0.54
2022/01/15 10:33, 0.54
2022/01/15 11:03, 0.54
2022/01/15 11:33, 0.54
2022/01/15 12:03, 0.54
2022/01/15 12:33, 0.54
2022/01/15 13:03, 12.14
2022/01/15 13:33, 13.73
2022/01/15 14:03, 16.31
2022/01/15 14:33, 19.95
2022/01/15 15:03, 20.57
2022/01/15 15:33, 21.16
2022/01/15 16:03, 20.26
2022/01/15 16:33, 20.18
2022/01/15 17:03, 21.31
2022/01/15 17:33, 20.68
2022/01/15 18:03, 21.22
2022/01/15 18:33, 20.30
2022/01/15 19:03, 20.41
2022/01/15 19:33, 20.41
2022/01/15 20:03, 20.50
2022/01/15 20:33, 20.54
2022/01/15 21:03, 20.46
2022/01/15 21:33, 20.05
2022/01/15 22:03, 16.87
2022/01/15 22:33, 15.79
2022/01/15 23:03, 2.77
2022/01/15 23:33, 0.54
2022/01/16 00:03, 0.54
2022/01/16 00:33, 0.54
2022/01/16 01:03, 0.54
2022/01/16 01:33, 0.54
2022/01/16 02:03, 0.54
2022/01/16 02:33, 0.54
2022/01/16 03:03, 0.54
2022/01/16 03:33, 0.54
2022/01/16 04:03, 0.54
2022/01/16 04:33, 0.54
2022/01/16 05:03, 0.54
2022/01/16 05:33, 0.54
2022/01/16 06:03, 0.54
2022/01/16 06:33, 0.54
2022/01/16 07:03, 0.54
2022/01/16 07:33, 0.54
2022/01/16 08:03, 0.54
2022/01/16 08:33, 0.54
2022/01/16 09:03, 0.54
2022/01/16 09:33, 0.54
2022/01/16 10:03, 0.54
2022/01/16 10:33, 0.54
2022/01/16 11:03, 0.54
2022/01/16 11:33, 0.54
2022/01/16 12:03, 0.54
2022/01/16 12:33, 0.83
2022/01/16 13:03, 11.96
2022/01/16 13:33, 13.71
2022/01/16 14:03, 13.89
2022/01/16 14:33, 14.86
2022/01/16 15:03, 14.43
2022/01/16 15:33, 15.63
2022/01/16 16:03, 15.15
2022/01/16 16:33, 16.20
2022/01/16 17:03, 16.49
2022/01/16 17:33, 16.88
2022/01/16 18:03, 16.54
2022/01/16 18:33, 16.33
2022/01/16 19:03, 16.45
2022/01/16 19:33, 16.65
2022/01/16 20:03, 16.33
2022/01/16 20:33, 14.53
2022/01/16 21:03, 14.50
2022/01/16 21:33, 14.63
2022/01/16 22:03, 14.08
2022/01/16 22:33, 11.47
2022/01/16 23:03, 0.54
2022/01/16 23:33, 0.54
2022/01/17 00:03, 0.54
2022/01/17 00:33, 0.54
2022/01/17 01:03, 0.54
2022/01/17 01:33, 0.54
2022/01/17 02:03, 0.54
2022/01/17 02:33, 0.54
2022/01/17 03:03, 0.54
2022/01/17 03:33, 0.54
2022/01/17 04:03, 0.54
2022/01/17 04:33, 0.54
2022/01/17 05:03, 0.54
2022/01/17 05:33, 0.54
2022/01/17 06:03, 0.54
2022/01/17 06:33, 0.54
2022/01/17 07:03, 0.54
2022/01/17 07:33, 0.54
2022/01/17 08:03, 0.54
2022/01/17 08:33, 0.54
2022/01/17 09:03, 0.54
2022/01/17 09:33, 0.54
2022/01/17 10:03, 0.54
2022/01/17 10:33, 0.54
2022/01/17 11:03, 0.54
2022/01/17 11:33, 0.54
2022/01/17 12:03, 0.54
2022/01/17 12:33, 0.54
2022/01/17 13:03, 7.34
2022/01/17 13:33, 15.25
2022/01/17 14:03, 14.18
2022/01/17 14:33, 16.27
2022/01/17 15:03, 15.94
2022/01/17 15:33, 16.80
2022/01/17 16:03, 16.78
2022/01/17 16:33, 17.57
2022/01/17 17:03, 17.58
2022/01/17 17:33, 17.39
2022/01/17 18:03, 17.58
2022/01/17 18:33, 17.80
2022/01/17 19:03, 18.09
2022/01/17 19:33, 17.82
2022/01/17 20:03, 17.16
2022/01/17 20:33, 17.31
2022/01/17 21:03, 16.41
2022/01/17 21:33, 14.09
2022/01/17 22:03, 13.90
2022/01/17 22:33, 11.67
2022/01/17 23:03, 0.64
2022/01/17 23:33, 0.54
2022/01/18 00:03, 0.54
2022/01/18 00:33, 0.54
2022/01/18 01:03, 0.54
2022/01/18 01:33, 0.54
2022/01/18 02:03, 0.54
2022/01/18 02:33, 0.54
2022/01/18 03:03, 0.54
2022/01/18 03:33, 0.54
2022/01/18 04:03, 0.54
2022/01/18 04:33, 0.54
2022/01/18 05:03, 0.54
2022/01/18 05:33, 0.54
2022/01/18 06:03, 0.54
2022/01/18 06:33, 0.54
2022/01/18 07:03, 0.54
2022/01/18 07:33, 0.54
2022/01/18 08:03, 0.54
2022/01/18 08:33, 0.54
2022/01/18 09:03, 0.54
2022/01/18 09:33, 0.54
2022/01/18 10:03, 0.54
2022/01/18 10:33, 0.54
2022/01/18 11:03, 0.54
2022/01/18 11:33, 0.54
2022/01/18 12:03, 0.54
2022/01/18 12:33, 0.71
2022/01/18 13:03, 13.03
2022/01/18 13:33, 14.78
2022/01/18 14:03, 16.80
2022/01/18 14:33, 19.21
2022/01/18 15:03, 19.17
2022/01/18 15:33, 19.70
2022/01/18 16:03, 17.17
2022/01/18 16:33, 19.40
2022/01/18 17:03, 19.92
2022/01/18 17:33, 19.13
2022/01/18 18:03, 20.66
2022/01/18 18:33, 19.61
2022/01/18 19:03, 17.16
2022/01/18 19:33, 17.13
2022/01/18 20:03, 16.02
2022/01/18 20:33, 15.96
2022/01/18 21:03, 15.50
2022/01/18 21:33, 14.79
2022/01/18 22:03, 16.48
2022/01/18 22:33, 9.83
2022/01/18 23:03, 0.63
2022/01/18 23:33, 0.54
2022/01/19 00:03, 0.54
2022/01/19 00:33, 0.54
2022/01/19 01:03, 0.54
2022/01/19 01:33, 0.54
2022/01/19 02:03, 0.54
2022/01/19 02:33, 0.54
2022/01/19 03:03, 0.54
2022/01/19 03:33, 0.54
2022/01/19 04:03, 0.54
2022/01/19 04:33, 0.54
2022/01/19 05:03, 0.54
2022/01/19 05:33, 0.54
2022/01/19 06:03, 0.54
2022/01/19 06:33, 0.54
2022/01/19 07:03, 0.54
2022/01/19 07:33, 0.54
2022/01/19 08:03, 0.54
2022/01/19 08:33, 0.54
2022/01/19 09:03, 0.54
2022/01/19 09:33, 0.54
2022/01/19 10:03, 0.54
2022/01/19 10:33, 0.54
2022/01/19 11:03, 0.54
2022/01/19 11:33, 0.54
2022/01/19 12:03, 0.54
2022/01/19 12:33, 0.54
2022/01/19 13:03, 10.99
2022/01/19 13:33, 13.65
2022/01/19 14:03, 14.81
2022/01/19 14:33, 15.49
2022/01/19 15:03, 16.83
2022/01/19 15:33, 17.08
2022/01/19 16:03, 16.83
2022/01/19 16:33, 19.77
2022/01/19 17:03, 20.57
2022/01/19 17:33, 20.63
2022/01/19 18:03, 20.57
2022/01/19 18:33, 20.39
2022/01/19 19:03, 20.47
2022/01/19 19:33, 19.93
2022/01/19 20:03, 19.80
2022/01/19 20:33, 19.60
2022/01/19 21:03, 16.39
2022/01/19 21:33, 15.63
2022/01/19 22:03, 14.29
2022/01/19 22:33, 14.47
2022/01/19 23:03, 1.41
2022/01/19 23:33, 0.54
2022/01/20 00:03, 0.54
2022/01/20 00:33, 0.54
2022/01/20 01:03, 0.54
2022/01/20 01:33, 0.54
2022/01/20 02:03, 0.54
2022/01/20 02:33, 0.54
2022/01/20 03:03, 0.54
2022/01/20 03:33, 0.54
2022/01/20 04:03, 0.54
2022/01/20 04:33, 0.54
2022/01/20 05:03, 0.54
2022/01/20 05:33, 0.54
2022/01/20 06:03, 0.54
2022/01/20 06:33, 0.54
2022/01/20 07:03, 0.54
2022/01/20 07:33, 0.54
2022/01/20 08:03, 0.54
2022/01/20 08:33, 0.54
2022/01/20 09:03, 0.54
2022/01/20 09:33, 0.54
2022/01/20 10:03, 0.54
2022/01/20 10:33, 0.54
2022/01/20 11:03, 0.54
2022/01/20 11:33, 0.54
2022/01/20 12:03, 0.54
2022/01/20 12:33, 0.64
2022/01/20 13:03, 14.38
2022/01/20 13:33, 14.38
2022/01/20 14:03, 16.73
2022/01/20 14:33, 17.48
2022/01/20 15:03, 17.27
2022/01/20 15:33, 19.37
2022/01/20 16:03, 20.02
2022/01/20 16:33, 20.25
2022/01/20 17:03, 20.35
2022/01/20 17:33, 20.47
2022/01/20 18:03, 20.81
2022/01/20 18:33, 20.31
2022/01/20 19:03, 20.91
2022/01/20 19:33, 18.90
2022/01/20 20:03, 16.75
2022/01/20 20:33, 17.07
2022/01/20 21:03, 16.29
2022/01/20 21:33, 16.16